GW0175 Weather Reports


Display with metric or nautical units.
time (UTC)temp
F
wind
direction
speed
MPH
gust
MPH
rain 1hr
in
rain 24hr
in
rain mn
in
humidity
%
barometer
mb
20260508033152 65 165 1.0 2.0 0.00 0.00 0.00 52 1011.4
20260508032649 65 132 0.0 2.0 0.00 0.00 0.00 52 1011.3
20260508032146 66 236 2.0 3.0 0.00 0.00 0.00 51 1011.2
20260508031643 66 206 2.0 4.0 0.00 0.00 0.00 51 1011.2
20260508031139 66 151 3.0 4.0 0.00 0.00 0.00 51 1011.2
20260508030635 66 153 3.0 5.0 0.00 0.00 0.00 51 1011.0
20260508030133 66 183 3.0 5.0 0.00 0.00 0.00 51 1011.0
20260508025629 66 152 3.0 5.0 0.00 0.00 0.00 50 1010.9
20260508025127 66 151 3.0 4.0 0.00 0.00 0.00 50 1010.9
20260508024622 66 156 2.0 5.0 0.00 0.00 0.00 50 1011.1
20260508024120 67 159 3.0 4.0 0.00 0.00 0.00 49 1011.0
20260508023616 67 148 0.0 3.0 0.00 0.00 0.00 50 1010.9
20260508023114 67 104 3.0 3.0 0.00 0.00 0.00 49 1010.8
20260508022609 67 144 0.0 3.0 0.00 0.00 0.00 48 1010.6
20260508022107 68 157 1.0 3.0 0.00 0.00 0.00 47 1010.8
20260508021602 68 152 2.0 3.0 0.00 0.00 0.00 47 1010.9
20260508021058 69 135 2.0 4.0 0.00 0.00 0.00 46 1010.4
20260508020556 69 157 5.0 7.0 0.00 0.00 0.00 45 1010.6
20260508020054 70 180 3.0 8.0 0.00 0.00 0.00 44 1010.4
20260508015551 70 163 6.0 10.0 0.00 0.00 0.00 43 1010.6
20260508015048 70 147 4.0 11.0 0.00 0.00 0.00 42 1010.1
20260508014544 71 172 7.0 10.0 0.00 0.00 0.00 42 1010.2
20260508014040 71 155 5.0 13.0 0.00 0.00 0.00 42 1010.1
20260508013536 71 161 9.0 13.0 0.00 0.00 0.00 41 1010.1
20260508013034 71 151 6.0 15.0 0.00 0.00 0.00 41 1010.2
20260508012531 72 154 8.0 15.0 0.00 0.00 0.00 41 1010.0
20260508012028 72 156 9.0 15.0 0.00 0.00 0.00 40 1010.2
20260508011527 72 164 7.0 13.0 0.00 0.00 0.00 40 1010.1
20260508011023 73 172 11.0 15.0 0.00 0.00 0.00 40 1010.2
20260508010520 73 161 12.0 13.0 0.00 0.00 0.00 39 1010.1
20260508010018 73 179 7.0 13.0 0.00 0.00 0.00 38 1010.3
20260508005514 73 181 9.0 12.0 0.00 0.00 0.00 38 1010.2
20260508005011 74 183 7.0 13.0 0.00 0.00 0.00 38 1010.2
20260508004507 74 183 5.0 10.0 0.00 0.00 0.00 37 1010.3
20260508004004 75 190 3.0 10.0 0.00 0.00 0.00 37 1010.3
20260508003500 75 200 3.0 17.0 0.00 0.00 0.00 36 1010.2
20260508002958 75 178 9.0 11.0 0.00 0.00 0.00 36 1010.4
20260508002454 75 166 8.0 11.0 0.00 0.00 0.00 35 1010.2
20260508001950 75 178 8.0 11.0 0.00 0.00 0.00 36 1010.3
20260508001446 75 162 7.0 11.0 0.00 0.00 0.00 36 1010.2
20260508000943 76 179 5.0 11.0 0.00 0.00 0.00 35 1010.6
20260508000439 76 168 1.0 11.0 0.00 0.00 0.00 35 1010.3
20260507235936 76 226 0.0 10.0 0.00 0.00 0.00 35 1010.7
20260507235433 76 154 2.0 7.0 0.00 0.00 0.00 34 1010.3
20260507234931 76 166 7.0 11.0 0.00 0.00 0.00 34 1010.4
20260507234427 76 179 6.0 9.0 0.00 0.00 0.00 34 1010.3
20260507233923 76 147 3.0 14.0 0.00 0.00 0.00 34 1010.6
20260507233420 76 166 6.0 11.0 0.00 0.00 0.00 34 1010.4
20260507232919 76 175 7.0 11.0 0.00 0.00 0.00 34 1010.6
20260507232415 75 171 10.0 11.0 0.00 0.00 0.00 33 1010.4
20260507231912 76 159 5.0 9.0 0.00 0.00 0.00 34 1010.6
20260507231409 76 169 6.0 7.0 0.00 0.00 0.00 34 1010.6
20260507230905 75 155 3.0 10.0 0.00 0.00 0.00 35 1010.6
20260507230403 75 181 6.0 11.0 0.00 0.00 0.00 34 1010.9
20260507225902 75 195 5.0 12.0 0.00 0.00 0.00 34 1010.8
20260507225359 75 181 5.0 7.0 0.00 0.00 0.00 34 1010.8
20260507224855 75 158 6.0 15.0 0.00 0.00 0.00 33 1010.9
20260507224351 75 189 6.0 11.0 0.00 0.00 0.00 34 1010.9
20260507223848 75 159 9.0 11.0 0.00 0.00 0.00 33 1011.2
20260507223344 75 182 4.0 9.0 0.00 0.00 0.00 33 1011.2
20260507222841 75 171 8.0 11.0 0.00 0.00 0.00 34 1011.3
20260507222337 76 174 4.0 9.0 0.00 0.00 0.00 34 1011.4
20260507221835 75 155 3.0 10.0 0.00 0.00 0.00 34 1011.4
20260507221331 75 157 6.0 11.0 0.00 0.00 0.00 34 1011.4
20260507220827 75 223 4.0 9.0 0.00 0.00 0.00 35 1011.5
20260507220326 75 177 3.0 11.0 0.00 0.00 0.00 35 1011.6
20260507215821 75 218 3.0 10.0 0.00 0.00 0.00 34 1011.8
20260507215319 74 130 0.0 10.0 0.00 0.00 0.00 37 1011.6
20260507214816 74 166 6.0 9.0 0.00 0.00 0.00 35 1011.8
20260507214313 75 180 5.0 9.0 0.00 0.00 0.00 35 1011.5
20260507213808 74 140 3.0 8.0 0.00 0.00 0.00 34 1012.1
20260507213306 75 164 5.0 8.0 0.00 0.00 0.00 35 1012.1
20260507212802 75 200 7.0 11.0 0.00 0.00 0.00 36 1012.3
20260507212258 74 167 5.0 6.0 0.00 0.00 0.00 36 1012.2
20260507211755 73 86 5.0 5.0 0.00 0.00 0.00 37 1012.2
20260507211251 73 175 9.0 13.0 0.00 0.00 0.00 37 1012.3
20260507210748 73 138 3.0 7.0 0.00 0.00 0.00 37 1012.4
20260507210245 73 254 0.0 9.0 0.00 0.00 0.00 38 1012.5
20260507205742 73 176 4.0 9.0 0.00 0.00 0.00 36 1012.5
20260507205239 73 196 7.0 10.0 0.00 0.00 0.00 37 1013.0
20260507204735 73 157 2.0 7.0 0.00 0.00 0.00 38 1012.9
20260507204233 73 70 2.0 6.0 0.00 0.00 0.00 37 1012.7
20260507203730 73 150 4.0 9.0 0.00 0.00 0.00 36 1013.0
20260507203227 71 248 3.0 7.0 0.00 0.00 0.00 39 1013.4
20260507202724 72 219 3.0 5.0 0.00 0.00 0.00 38 1013.4
20260507202220 71 196 3.0 6.0 0.00 0.00 0.00 39 1013.4
20260507201714 71 170 7.0 11.0 0.00 0.00 0.00 39 1013.5
20260507201212 72 237 3.0 7.0 0.00 0.00 0.00 38 1013.7
20260507200708 71 282 2.0 5.0 0.00 0.00 0.00 39 1013.9
20260507200204 71 163 4.0 10.0 0.00 0.00 0.00 41 1013.8
20260507195701 71 163 3.0 5.0 0.00 0.00 0.00 40 1013.9
20260507195158 69 254 4.0 4.0 0.00 0.00 0.00 42 1014.2
20260507194655 69 161 7.0 10.0 0.00 0.00 0.00 41 1014.4
20260507194150 69 274 3.0 5.0 0.00 0.00 0.00 43 1014.2
20260507193647 68 270 1.0 6.0 0.00 0.00 0.00 44 1014.5
20260507193145 68 160 1.0 8.0 0.00 0.00 0.00 44 1014.6
20260507192640 68 172 2.0 5.0 0.00 0.00 0.00 44 1014.3
20260507192138 68 173 5.0 9.0 0.00 0.00 0.00 43 1014.9
20260507191633 68 250 0.0 6.0 0.00 0.00 0.00 44 1014.6
20260507191130 68 255 1.0 7.0 0.00 0.00 0.00 45 1014.9
20260507190627 68 233 4.0 9.0 0.00 0.00 0.00 45 1014.7
20260507190126 67 106 0.0 6.0 0.00 0.00 0.00 45 1015.3
20260507185625 68 222 5.0 8.0 0.00 0.00 0.00 45 1014.8
20260507185120 66 194 5.0 11.0 0.00 0.00 0.00 47 1015.1
20260507184619 67 212 3.0 9.0 0.00 0.00 0.00 45 1015.4
20260507184116 67 262 3.0 4.0 0.00 0.00 0.00 47 1015.4
20260507183612 66 236 5.0 6.0 0.00 0.00 0.00 47 1015.7
20260507183109 66 121 2.0 3.0 0.00 0.00 0.00 47 1015.6
20260507182605 64 225 2.0 7.0 0.00 0.00 0.00 49 1015.8
20260507182102 65 188 3.0 7.0 0.00 0.00 0.00 48 1015.8
20260507181559 65 151 1.0 4.0 0.00 0.00 0.00 49 1016.0
20260507181055 64 180 6.0 10.0 0.00 0.00 0.00 49 1016.2
20260507180551 65 33 2.0 5.0 0.00 0.00 0.00 48 1016.2
20260507180048 65 131 3.0 3.0 0.00 0.00 0.00 49 1016.1
20260507175544 66 121 0.0 3.0 0.00 0.00 0.00 47 1016.5
20260507175042 65 15 2.0 6.0 0.00 0.00 0.00 48 1016.3
20260507174539 63 23 4.0 4.0 0.00 0.00 0.00 50 1016.5
20260507174037 64 79 3.0 10.0 0.00 0.00 0.00 50 1016.6
20260507173533 62 195 2.0 10.0 0.00 0.00 0.00 51 1016.9
20260507173031 62 232 0.0 7.0 0.00 0.00 0.00 52 1016.7
20260507172526 62 259 7.0 7.0 0.00 0.00 0.00 52 1016.9
20260507172024 64 210 2.0 5.0 0.00 0.00 0.00 49 1016.9
20260507171519 62 283 2.0 5.0 0.00 0.00 0.00 52 1017.0
20260507171017 62 21 2.0 6.0 0.00 0.00 0.00 52 1017.2
20260507170513 62 346 0.0 3.0 0.00 0.00 0.00 52 1017.2
20260507170010 61 233 3.0 7.0 0.00 0.00 0.00 53 1017.2
20260507165506 61 315 2.0 7.0 0.00 0.00 0.00 53 1017.4
20260507165003 62 21 0.0 4.0 0.00 0.00 0.00 53 1017.4
20260507164459 61 15 1.0 4.0 0.00 0.00 0.00 52 1017.7
20260507163955 60 31 7.0 9.0 0.00 0.00 0.00 55 1017.6
20260507163453 61 36 2.0 3.0 0.00 0.00 0.00 53 1017.9
20260507162950 59 63 0.0 5.0 0.00 0.00 0.00 55 1017.7
20260507162445 60 353 2.0 4.0 0.00 0.00 0.00 54 1017.7
20260507161943 60 354 3.0 5.0 0.00 0.00 0.00 53 1017.8
20260507161439 61 145 0.0 5.0 0.00 0.00 0.00 52 1018.2
20260507160936 60 96 2.0 4.0 0.00 0.00 0.00 54 1018.0
20260507160432 57 22 3.0 8.0 0.00 0.00 0.00 57 1018.4
20260507155927 58 78 2.0 5.0 0.00 0.00 0.00 56 1018.3
20260507155424 57 31 6.0 7.0 0.00 0.00 0.00 57 1018.5
20260507154921 58 71 1.0 8.0 0.00 0.00 0.00 57 1018.4
20260507154417 57 38 4.0 6.0 0.00 0.00 0.00 56 1018.3
20260507153915 57 157 0.0 8.0 0.00 0.00 0.00 58 1018.5
20260507153411 56 32 5.0 9.0 0.00 0.00 0.00 57 1018.9
20260507152908 55 11 5.0 10.0 0.00 0.00 0.00 58 1018.8
20260507152404 56 41 2.0 7.0 0.00 0.00 0.00 58 1019.0
20260507151900 56 45 6.0 9.0 0.00 0.00 0.00 58 1018.6
20260507151356 55 15 3.0 9.0 0.00 0.00 0.00 58 1018.9
20260507150854 55 32 5.0 9.0 0.00 0.00 0.00 60 1018.8
20260507150350 53 9 7.0 11.0 0.00 0.00 0.00 61 1018.8
20260507145846 54 43 5.0 9.0 0.00 0.00 0.00 62 1019.2
20260507145343 53 29 8.0 10.0 0.00 0.00 0.00 62 1019.1
20260507144840 53 33 3.0 10.0 0.00 0.00 0.00 62 1019.3
20260507144337 52 17 7.0 10.0 0.00 0.00 0.00 63 1018.9
20260507143834 53 20 9.0 12.0 0.00 0.00 0.00 63 1019.2
20260507143331 52 53 3.0 11.0 0.00 0.00 0.00 64 1019.3
20260507142827 52 15 7.0 12.0 0.00 0.00 0.00 64 1019.3
20260507142323 51 15 7.0 11.0 0.00 0.00 0.00 64 1019.2
20260507141820 51 40 10.0 12.0 0.00 0.00 0.00 65 1019.1
20260507141317 51 349 6.0 11.0 0.00 0.00 0.00 66 1019.2
20260507140813 51 45 7.0 11.0 0.00 0.00 0.00 66 1019.2
20260507140310 51 21 5.0 14.0 0.00 0.00 0.00 66 1019.2
20260507135808 51 32 9.0 12.0 0.00 0.00 0.00 66 1019.4
20260507135306 51 19 9.0 14.0 0.00 0.00 0.00 66 1019.3
20260507134802 51 21 7.0 14.0 0.00 0.00 0.00 66 1019.1
20260507134258 51 27 11.0 11.0 0.00 0.00 0.00 66 1019.4
20260507133754 51 30 10.0 16.0 0.00 0.00 0.00 65 1019.1
20260507133250 51 35 11.0 15.0 0.00 0.00 0.00 66 1019.2
20260507132748 51 33 11.0 14.0 0.00 0.00 0.00 66 1019.2
20260507132245 51 35 6.0 14.0 0.00 0.00 0.00 66 1019.1
20260507131742 51 29 5.0 13.0 0.00 0.00 0.00 66 1019.2
20260507131239 51 8 6.0 11.0 0.00 0.00 0.00 65 1019.1
20260507130735 51 27 8.0 13.0 0.00 0.00 0.00 65 1019.1
20260507130233 51 10 8.0 15.0 0.00 0.00 0.00 66 1019.0
20260507125732 51 36 9.0 13.0 0.00 0.00 0.00 65 1019.0
20260507125229 51 0 11.0 14.0 0.00 0.00 0.00 66 1018.9
20260507124725 51 20 9.0 12.0 0.00 0.00 0.00 66 1019.0
20260507124222 50 0 2.0 13.0 0.00 0.00 0.00 66 1018.9
20260507123721 50 18 5.0 13.0 0.00 0.00 0.00 66 1019.0
20260507123218 50 30 9.0 14.0 0.00 0.00 0.00 67 1018.9
20260507122713 50 5 6.0 11.0 0.00 0.00 0.00 67 1018.8
20260507122209 50 27 8.0 13.0 0.00 0.00 0.00 67 1018.8
20260507121705 50 33 8.0 15.0 0.00 0.00 0.00 67 1018.4
20260507121201 50 22 7.0 14.0 0.00 0.00 0.00 67 1018.8
20260507120657 50 20 7.0 13.0 0.00 0.00 0.00 67 1018.5
20260507120154 50 10 11.0 14.0 0.00 0.00 0.00 67 1018.5
20260507115650 50 20 11.0 17.0 0.00 0.00 0.00 67 1018.5
20260507115146 50 14 12.0 17.0 0.00 0.00 0.00 68 1018.6
20260507114642 50 14 7.0 15.0 0.00 0.00 0.00 68 1018.5
20260507114140 50 0 11.0 17.0 0.00 0.00 0.00 68 1018.8
20260507113637 50 34 12.0 18.0 0.00 0.00 0.00 68 1018.4
20260507113134 50 0 9.0 16.0 0.00 0.00 0.00 68 1018.6
20260507112632 50 12 12.0 17.0 0.00 0.00 0.00 68 1018.6
20260507112128 50 27 9.0 17.0 0.00 0.00 0.00 68 1018.6
20260507111625 50 24 14.0 16.0 0.00 0.00 0.00 68 1018.4
20260507111122 50 0 14.0 16.0 0.00 0.00 0.00 68 1018.6
20260507110618 50 356 11.0 18.0 0.00 0.00 0.00 68 1018.4
20260507110115 49 28 8.0 15.0 0.00 0.00 0.00 69 1018.4
20260507105612 49 22 9.0 15.0 0.00 0.00 0.00 69 1018.4
20260507105108 49 2 11.0 14.0 0.00 0.00 0.00 69 1018.3
20260507104606 49 10 9.0 14.0 0.00 0.00 0.00 69 1018.3
20260507104102 49 6 11.0 15.0 0.00 0.00 0.00 69 1018.4
20260507103558 49 355 10.0 12.0 0.00 0.00 0.00 69 1018.4
20260507103055 49 18 9.0 13.0 0.00 0.00 0.00 68 1018.1
20260507102551 49 7 12.0 15.0 0.00 0.00 0.00 68 1018.3
20260507102047 50 354 6.0 13.0 0.00 0.00 0.00 68 1018.3
20260507101543 50 0 12.0 14.0 0.00 0.00 0.00 68 1018.0
20260507101039 50 6 14.0 16.0 0.00 0.00 0.00 68 1018.0
20260507100537 50 10 9.0 13.0 0.00 0.00 0.00 68 1018.2
20260507100035 50 7 10.0 15.0 0.00 0.00 0.00 67 1017.7
20260507095532 50 21 9.0 17.0 0.00 0.00 0.00 67 1017.7
20260507095029 50 359 11.0 16.0 0.00 0.00 0.00 67 1017.8
20260507094525 50 340 7.0 17.0 0.00 0.00 0.00 66 1017.6
20260507094022 51 0 12.0 19.0 0.00 0.00 0.00 66 1017.8
20260507093519 51 0 19.0 19.0 0.00 0.00 0.00 66 1017.6
20260507093018 51 3 13.0 18.0 0.00 0.00 0.00 66 1017.7
20260507092514 51 352 12.0 20.0 0.00 0.00 0.00 66 1017.3
20260507092011 51 9 10.0 18.0 0.00 0.00 0.00 66 1017.2
20260507091508 50 12 9.0 16.0 0.00 0.00 0.00 66 1017.3
20260507091004 50 33 9.0 11.0 0.00 0.00 0.00 66 1017.2
20260507090459 51 349 16.0 18.0 0.00 0.00 0.00 65 1017.1
20260507085956 51 3 13.0 17.0 0.00 0.00 0.00 65 1017.3
20260507085454 51 349 18.0 22.0 0.00 0.00 0.00 64 1017.6
20260507084950 51 358 17.0 21.0 0.00 0.00 0.00 64 1017.0
20260507084447 52 359 14.0 20.0 0.00 0.00 0.00 64 1017.0
20260507083944 52 332 10.0 15.0 0.00 0.00 0.00 64 1017.0
20260507083440 52 8 15.0 18.0 0.00 0.00 0.00 63 1016.8
20260507082937 52 359 9.0 16.0 0.00 0.00 0.00 63 1016.8
20260507082433 52 6 8.0 18.0 0.00 0.00 0.00 63 1017.0
20260507081930 52 0 8.0 11.0 0.00 0.00 0.00 63 1016.9
20260507081426 52 358 10.0 16.0 0.00 0.00 0.00 63 1016.8
20260507080923 52 1 8.0 12.0 0.00 0.00 0.00 63 1016.9
20260507080419 52 10 8.0 14.0 0.00 0.00 0.00 63 1016.9
20260507075914 52 337 4.0 13.0 0.00 0.00 0.00 63 1016.8
20260507075411 52 330 6.0 18.0 0.00 0.00 0.00 63 1016.8
20260507074908 52 346 5.0 19.0 0.00 0.00 0.00 63 1016.6
20260507074404 52 15 5.0 13.0 0.00 0.00 0.00 62 1016.6
20260507073902 52 359 13.0 21.0 0.00 0.00 0.00 62 1016.3
20260507073358 52 345 14.0 21.0 0.00 0.00 0.00 61 1016.2
20260507072855 52 8 12.0 24.0 0.00 0.00 0.00 61 1016.0
20260507072353 52 4 13.0 26.0 0.00 0.00 0.00 61 1016.0
20260507071850 52 8 18.0 31.0 0.00 0.00 0.00 61 1015.5
20260507071347 52 9 20.0 27.0 0.00 0.00 0.00 62 1015.5
20260507070843 52 6 17.0 29.0 0.00 0.00 0.00 62 1015.6
20260507070341 52 356 25.0 30.0 0.00 0.00 0.00 61 1015.6
20260507065838 52 0 14.0 29.0 0.00 0.00 0.00 61 1015.5
20260507065334 52 344 16.0 25.0 0.00 0.00 0.00 61 1015.6
20260507064831 52 26 16.0 28.0 0.00 0.00 0.00 61 1015.4
20260507064330 52 15 10.0 29.0 0.00 0.00 0.00 61 1015.5
20260507063827 53 17 18.0 26.0 0.00 0.00 0.00 61 1015.4
20260507063324 53 1 22.0 30.0 0.00 0.00 0.00 61 1015.0
20260507062821 53 352 17.0 33.0 0.00 0.00 0.00 61 1014.7
20260507062318 53 16 20.0 30.0 0.00 0.00 0.00 61 1014.9
20260507061816 53 4 20.0 34.0 0.00 0.00 0.00 61 1014.6
20260507061314 53 4 24.0 33.0 0.00 0.00 0.00 60 1014.8
20260507060812 54 348 17.0 33.0 0.00 0.00 0.00 60 1014.8
20260507060308 54 33 19.0 26.0 0.00 0.00 0.00 60 1014.5
20260507055805 55 0 18.0 34.0 0.00 0.00 0.00 59 1014.5
20260507055300 55 11 18.0 35.0 0.00 0.00 0.00 58 1014.5
20260507054756 55 34 11.0 32.0 0.00 0.00 0.00 58 1014.6
20260507054253 56 6 24.0 32.0 0.00 0.00 0.00 57 1014.7
20260507053750 56 359 15.0 30.0 0.00 0.00 0.00 57 1014.6
20260507053248 56 18 8.0 30.0 0.00 0.00 0.00 56 1014.5
20260507052747 56 12 20.0 29.0 0.00 0.00 0.00 56 1014.4
20260507052243 57 23 13.0 29.0 0.00 0.00 0.00 55 1014.6
20260507051741 57 7 15.0 28.0 0.00 0.00 0.00 54 1014.5
20260507051237 58 18 17.0 25.0 0.00 0.00 0.00 53 1014.5
20260507050734 58 349 17.0 37.0 0.00 0.00 0.00 53 1014.4
20260507050231 60 25 12.0 28.0 0.00 0.00 0.00 50 1013.9
20260507045728 61 0 28.0 30.0 0.00 0.00 0.00 44 1013.7
20260507045224 58 22 15.0 18.0 0.00 0.00 0.00 41 1013.5
20260507044722 61 325 0.0 3.0 0.00 0.00 0.00 34 1012.6
20260507044218 62 307 2.0 4.0 0.00 0.00 0.00 33 1012.2
20260507043714 63 282 0.0 5.0 0.00 0.00 0.00 32 1012.1
20260507043211 63 323 2.0 4.0 0.00 0.00 0.00 32 1012.1
20260507042708 63 270 2.0 3.0 0.00 0.00 0.00 32 1011.9
20260507042202 63 235 0.0 3.0 0.00 0.00 0.00 32 1011.9
20260507041700 64 262 0.0 3.0 0.00 0.00 0.00 31 1012.1
20260507041156 64 270 3.0 4.0 0.00 0.00 0.00 30 1011.9
20260507040653 64 247 3.0 7.0 0.00 0.00 0.00 29 1011.8
20260507040150 64 259 4.0 6.0 0.00 0.00 0.00 30 1011.6
20260507035646 64 240 3.0 5.0 0.00 0.00 0.00 30 1011.9
20260507035142 65 235 5.0 6.0 0.00 0.00 0.00 30 1011.8
20260507034639 65 255 2.0 6.0 0.00 0.00 0.00 30 1011.4
20260507034136 65 231 4.0 6.0 0.00 0.00 0.00 30 1011.3
20260507033635 65 243 3.0 6.0 0.00 0.00 0.00 30 1011.4